User: anonymous   Login
Location: Killam
(52.7910°N, 111.8608°W)
Time: 13:22:23
(UTC+00:00)
Language:

BUGSAT 1 - Orbit

View from above orbital plane
View from above orbital plane
View from above satellite
View from above satellite

Ground track
Ground track

The orbit data is extracted from the following two-line orbital elements,

1 40014U 14033E   24053.90772222  .00005313  00000-0  40119-3 0  9995
2 40014  98.1430  89.7426 0037133 158.7145 201.5633 15.02320324528322
Epoch (UTC): 22 February 2024 21:47:07
Eccentricity: 0.0037133
inclination: 98.1430°
perigee height: 534 km
apogee height: 585 km
right ascension of ascending node: 89.7426°
argument of perigee: 158.7145°
revolutions per day: 15.02320324
mean anomaly at epoch: 201.5633°
orbit number at epoch: 52832

The dashed part of the orbit path shows where the satellite is in the earth's shadow,  

DLR